Home   Weather   Hyderabad   Past weeks

Flag for India Past Weather in Hyderabad, Telangana, India — Yesterday and Last 2 Weeks

Now
91 °F

Haze.


Feels Like: 88 °F
Forecast: 76 / 103 °F
Wind: No wind

Location: Hyderabad Airport

Current Time: Apr 24, 2017 at 8:39:37 pm

Latest Report: Apr 24, 2017 at 8:00 pm


Visibility: 3 mi

Pressure: 29.86 "Hg (28.22 "Hg at 507m altitude)

Humidity: 20%

Dew Point: 45 °F

Location of HyderabadLocation

Past Weather in Hyderabad — Graph

°F

Hyderabad Temperature Yesterday

Maximum temperature yesterday: 106 °F (at 1:30 pm)
Minimum temperature yesterday: 81 °F (at 6:00 am)
Average temperature yesterday: 96 °F

High & Low Weather Summary for the Past Weeks

 TemperatureHumidityPressure
High111 °F (Apr 16, 3:30 pm)84% (Apr 19, 6:00 am)29.98 "Hg (Apr 19, 6:00 am)
Low64 °F (Apr 12, 6:00 am)7% (Apr 12, 12:00 pm)29.71 "Hg (Apr 15, 4:00 pm)
Average97 °F22%29.85 "Hg
* Reported Apr 9 6:30 pm — Apr 24 7:00 pm, Hyderabad, Weather by CustomWeather, © 2017

Note: Actual official high and low records may vary slightly from our data, if they occured in-between our weather recording intervals... More about our weather records

Advertising

Hyderabad Weather History for the Previous 24 Hours

Scroll right to see more
 ConditionsComfort  
Time TempWeatherWind HumidityBarometerVisibility
7:00 pm
Mon, Apr 24
95 °FHaze.No wind16%29.86 "Hg3 mi
6:30 pm97 °FHaze.No wind17%29.86 "Hg3 mi
5:30 pm100 °FClear.6 mph16%29.83 "Hg4 mi
5:00 pm104 °FClear.2 mph15%29.83 "Hg4 mi
4:30 pm104 °FClear.2 mph15%29.83 "Hg4 mi
4:00 pm104 °FClear.2 mph15%29.83 "Hg4 mi
3:30 pm106 °FClear.6 mph15%29.83 "Hg4 mi
3:00 pm106 °FClear.2 mph15%29.83 "Hg4 mi
2:30 pm106 °FClear.5 mph15%29.86 "Hg4 mi
2:00 pm106 °FClear.5 mph14%29.86 "Hg4 mi
1:30 pm106 °FClear.2 mph15%29.86 "Hg4 mi
1:00 pm106 °FClear.3 mph15%29.89 "Hg4 mi
12:30 pm104 °FClear.5 mph16%29.89 "Hg4 mi
12:00 pm104 °FClear.5 mph16%29.92 "Hg4 mi
11:30 am102 °FClear.2 mph18%29.92 "Hg4 mi
11:00 am100 °FClear.2 mph20%29.89 "Hg4 mi
10:30 am99 °FClear.3 mph21%29.92 "Hg4 mi
10:00 am97 °FClear.5 mph20%29.92 "Hg4 mi
9:00 am93 °FHaze.5 mph21%29.92 "Hg3 mi
8:30 am91 °FHaze.2 mph23%29.92 "Hg3 mi
8:00 am88 °FHaze.2 mph24%29.92 "Hg3 mi
7:30 am84 °FHaze.2 mph27%29.92 "Hg3 mi
7:00 am82 °FHaze.2 mph26%29.89 "Hg3 mi
6:30 am81 °FHaze.2 mph28%29.89 "Hg2 mi
9:00 pm
Sun, Apr 23
84 °FHaze.No wind31%29.86 "Hg3 mi
8:00 pm86 °FHaze.No wind29%29.83 "Hg3 mi
Weather by CustomWeather, © 2017

See weather overviewHow to use our weather pages